When you browse on this site, cookies collect data to enhance your experience and personalize the content and advertising you see.
Visit our Privacy Policy to learn more. By continuing to use the site, you agree to this use of cookies and data.
  • In Romania
  • List of Countries
  • For 7 days
  • Water Temperature
  • Satellite Maps
  • Weather Map
  • Weather Widgets
  • user-avatar
    Login

    Hourly Weather Konoplische

    Today, 21 November, Wednesday

    Time Temperature Precipitation Wind Pressure Humidity
    00:00 -5°C° 0 mm 3 mps 753 mmHg 83%
    01:00 -5°C° 0 mm 3 mps 753 mmHg 85%
    02:00 -4°C° 0 mm 3 mps 754 mmHg 86%
    03:00 -4°C° 0 mm 3 mps 754 mmHg 86%
    04:00 -4°C° 0 mm 3 mps 754 mmHg 86%
    05:00 -4°C° 0 mm 3 mps 754 mmHg 86%
    06:00 -4°C° 0 mm 3 mps 754 mmHg 87%
    07:00 -4°C° 0 mm 3 mps 754 mmHg 87%
    08:00 -3°C° 0 mm 2 mps 754 mmHg 88%
    09:00 -3°C° 0 mm 2 mps 755 mmHg 87%
    10:00 -3°C° 0 mm 2 mps 755 mmHg 86%
    11:00 -3°C° 0 mm 2 mps 755 mmHg 86%
    12:00 -3°C° 0 mm 2 mps 755 mmHg 86%
    13:00 -3°C° 0 mm 2 mps 754 mmHg 86%
    14:00 -3°C° 0 mm 2 mps 754 mmHg 87%
    15:00 -4°C° 0 mm 3 mps 754 mmHg 88%
    16:00 -4°C° 0 mm 3 mps 754 mmHg 89%
    17:00 -5°C° 0 mm 3 mps 754 mmHg 91%
    18:00 -4°C° 0 mm 3 mps 754 mmHg 89%
    19:00 -4°C° 0 mm 3 mps 753 mmHg 88%
    20:00 -4°C° 0 mm 4 mps 753 mmHg 86%
    21:00 -4°C° 0 mm 4 mps 752 mmHg 86%
    22:00 -4°C° 0 mm 4 mps 752 mmHg 86%
    23:00 -4°C° 0 mm 4 mps 752 mmHg 86%

    Tomorrow, 22 November, Thursday

    Time Temperature Precipitation Wind Pressure Humidity
    00:00 -4°C° 0 mm 4 mps 752 mmHg 86%
    01:00 -4°C° 0 mm 4 mps 751 mmHg 86%
    02:00 -4°C° 0 mm 4 mps 751 mmHg 86%
    03:00 -4°C° 0 mm 4 mps 750 mmHg 86%
    04:00 -4°C° 0 mm 4 mps 750 mmHg 86%
    05:00 -5°C° 0 mm 4 mps 749 mmHg 86%
    06:00 -4°C° 0 mm 4 mps 749 mmHg 86%
    07:00 -4°C° 0 mm 4 mps 749 mmHg 85%
    08:00 -5°C° 0 mm 5 mps 749 mmHg 84%
    09:00 -5°C° 0 mm 5 mps 748 mmHg 82%
    10:00 -4°C° 0 mm 5 mps 748 mmHg 80%
    11:00 -4°C° 0 mm 5 mps 748 mmHg 78%
    12:00 -2°C° 0 mm 5 mps 747 mmHg 78%
    13:00 -2°C° 0 mm 5 mps 747 mmHg 78%
    14:00 -2°C° 0 mm 5 mps 747 mmHg 78%
    15:00 -2°C° 0 mm 5 mps 747 mmHg 80%
    16:00 -2°C° 0 mm 5 mps 747 mmHg 81%
    17:00 -1°C° 0 mm 5 mps 747 mmHg 82%
    18:00 -2°C° 0 mm 5 mps 747 mmHg 82%
    19:00 -2°C° 0 mm 5 mps 747 mmHg 82%
    20:00 -2°C° 0 mm 5 mps 747 mmHg 82%
    21:00 -2°C° 0 mm 4 mps 748 mmHg 83%
    22:00 -2°C° 0 mm 4 mps 748 mmHg 84%
    23:00 -3°C° 0 mm 4 mps 749 mmHg 84%

    Day after tomorrow, 23 November, Friday

    Time Temperature Precipitation Wind Pressure Humidity
    00:00 -3°C° 0 mm 4 mps 749 mmHg 85%
    01:00 -4°C° 0 mm 4 mps 750 mmHg 87%
    02:00 -5°C° 0 mm 3 mps 750 mmHg 88%
    03:00 -5°C° 0 mm 3 mps 751 mmHg 88%
    04:00 -5°C° 0 mm 3 mps 751 mmHg 88%
    05:00 -6°C° 0 mm 3 mps 752 mmHg 89%
    06:00 -5°C° 0 mm 2 mps 752 mmHg 89%
    07:00 -5°C° 0 mm 2 mps 753 mmHg 89%
    08:00 -5°C° 0 mm 2 mps 753 mmHg 89%
    09:00 -5°C° 0 mm 2 mps 753 mmHg 85%
    10:00 -4°C° 0 mm 2 mps 754 mmHg 81%
    11:00 -1°C° 0 mm 1 mps 754 mmHg 77%
    12:00 -3°C° 0 mm 2 mps 754 mmHg 77%
    13:00 -3°C° 0 mm 2 mps 754 mmHg 77%
    14:00 -3°C° 0 mm 2 mps 754 mmHg 77%
    15:00 -3°C° 0 mm 2 mps 754 mmHg 80%
    16:00 -4°C° 0 mm 2 mps 753 mmHg 84%
    17:00 -4°C° 0 mm 2 mps 753 mmHg 87%
    18:00 -5°C° 0 mm 3 mps 753 mmHg 87%
    19:00 -4°C° 0 mm 3 mps 752 mmHg 87%
    20:00 -4°C° 0 mm 3 mps 752 mmHg 87%
    21:00 -4°C° 0 mm 3 mps 752 mmHg 86%
    22:00 -2°C° 0 mm 3 mps 751 mmHg 84%
    23:00 -3°C° 0 mm 4 mps 751 mmHg 82%

    24 November, Saturday

    Time Temperature Precipitation Wind Pressure Humidity
    00:00 -3°C° 0 mm 4 mps 750 mmHg 82%
    01:00 -3°C° 0 mm 4 mps 750 mmHg 82%
    02:00 -3°C° 0 mm 4 mps 749 mmHg 81%
    03:00 -4°C° 0 mm 5 mps 749 mmHg 81%
    04:00 -4°C° 0 mm 5 mps 748 mmHg 80%
    05:00 -4°C° 0 mm 5 mps 748 mmHg 79%
    06:00 -4°C° 0 mm 5 mps 747 mmHg 78%
    07:00 -4°C° 0 mm 5 mps 747 mmHg 78%
    08:00 -4°C° 0 mm 5 mps 747 mmHg 78%
    09:00 -4°C° 0 mm 5 mps 746 mmHg 77%
    10:00 -4°C° 0 mm 5 mps 746 mmHg 76%
    11:00 -4°C° 0 mm 5 mps 746 mmHg 75%
    12:00 -5°C° 0 mm 5 mps 745 mmHg 75%
    13:00 -4°C° 0 mm 4 mps 745 mmHg 75%
    14:00 -4°C° 0 mm 4 mps 745 mmHg 75%
    15:00 -4°C° 0 mm 4 mps 744 mmHg 77%
    16:00 -4°C° 0 mm 4 mps 744 mmHg 78%
    17:00 -4°C° 0 mm 4 mps 744 mmHg 79%
    18:00 -4°C° 0 mm 4 mps 743 mmHg 80%
    19:00 -4°C° 0 mm 4 mps 743 mmHg 81%
    20:00 -4°C° 0 mm 4 mps 743 mmHg 81%
    21:00 -4°C° 0 mm 4 mps 743 mmHg 82%
    22:00 -4°C° 0 mm 4 mps 743 mmHg 83%
    23:00 -4°C° 0 mm 4 mps 743 mmHg 84%

    25 November, Sunday

    Time Temperature Precipitation Wind Pressure Humidity
    00:00 -4°C° 0 mm 3 mps 743 mmHg 85%
    01:00 -4°C° 0 mm 3 mps 743 mmHg 86%
    02:00 -2°C° 0 mm 3 mps 743 mmHg 86%
    03:00 -2°C° 0 mm 3 mps 743 mmHg 86%
    04:00 -2°C° 0 mm 3 mps 744 mmHg 86%
    05:00 -2°C° 0 mm 2 mps 744 mmHg 86%
    06:00 -3°C° 0 mm 2 mps 744 mmHg 88%
    07:00 -3°C° 0 mm 2 mps 745 mmHg 89%
    08:00 -4°C° 0 mm 2 mps 745 mmHg 91%
    09:00 -3°C° 0 mm 2 mps 745 mmHg 88%
    10:00 -3°C° 0 mm 2 mps 746 mmHg 85%
    11:00 -3°C° 0 mm 2 mps 746 mmHg 82%
    12:00 -1°C° 0 mm 1 mps 746 mmHg 83%
    13:00 -1°C° 0 mm 1 mps 746 mmHg 84%
    14:00 -1°C° 0 mm 1 mps 746 mmHg 85%
    15:00 -2°C° 0 mm 1 mps 746 mmHg 87%
    16:00 -2°C° 0 mm 1 mps 746 mmHg 89%
    17:00 -3°C° 0 mm 1 mps 746 mmHg 92%
    18:00 -3°C° 0 mm 1 mps 746 mmHg 92%
    19:00 -4°C° 0 mm 1 mps 745 mmHg 92%
    20:00 -4°C° 0 mm 1 mps 745 mmHg 92%
    21:00 -4°C° 0 mm 1 mps 745 mmHg 92%
    22:00 -4°C° 0 mm 1 mps 745 mmHg 92%
    23:00 -4°C° 0 mm 1 mps 744 mmHg 92%

    26 November, Monday

    Time Temperature Precipitation Wind Pressure Humidity
    00:00 -4°C° 0 mm 1 mps 744 mmHg 92%
    01:00 -4°C° 0 mm 1 mps 744 mmHg 92%
    02:00 -4°C° 0 mm 1 mps 743 mmHg 92%
    03:00 -4°C° 0 mm 1 mps 743 mmHg 92%
    04:00 -4°C° 0 mm 1 mps 742 mmHg 92%
    05:00 -4°C° 0 mm 1 mps 742 mmHg 93%
    06:00 -4°C° 0 mm 1 mps 742 mmHg 93%
    07:00 -4°C° 0 mm 1 mps 742 mmHg 93%
    08:00 -4°C° 0 mm 1 mps 742 mmHg 93%
    09:00 -6°C° 0 mm 2 mps 742 mmHg 90%
    10:00 -5°C° 0 mm 2 mps 742 mmHg 87%
    11:00 -6°C° 0 mm 3 mps 742 mmHg 83%
    12:00 -5°C° 0 mm 3 mps 742 mmHg 82%
    13:00 -5°C° 0 mm 3 mps 742 mmHg 80%
    14:00 -5°C° 0 mm 3 mps 742 mmHg 78%
    15:00 -5°C° 0 mm 3 mps 742 mmHg 79%
    16:00 -6°C° 0 mm 3 mps 743 mmHg 79%
    17:00 -6°C° 0 mm 3 mps 743 mmHg 80%
    18:00 -7°C° 0 mm 3 mps 743 mmHg 82%
    19:00 -6°C° 0 mm 2 mps 743 mmHg 84%
    20:00 -7°C° 0 mm 2 mps 743 mmHg 86%
    21:00 -7°C° 0 mm 2 mps 744 mmHg 86%
    22:00 -7°C° 0 mm 2 mps 744 mmHg 87%
    23:00 -8°C° 0 mm 2 mps 744 mmHg 88%
    Show more